This demonstration page uses our WeatherBlox Daily Observations layout. Learn more.

40.92945, -100.16068

Hourly Observations for March 24, 2015

Temp ( °F °C ) Dew Point ( °F °C ) Humidity (%) Winds ( mph kmh ) Pressure ( in mb ) Visibility ( mi km ) Precip ( " mm )
12:15 am 00:15 Cloudy 40 4.6 31 -0.6 69 69 E 3 6 30.03 1017 10 16.0934 N/A
12:35 am 00:35 Cloudy 41 5 31 -0.5 68 68 NNE 3 6 30.03 1017 10 16.0934 N/A
12:55 am 00:55 Cloudy 42 5.5 32 -0.2 67 67 ESE 3 6 30.03 1017 10 16.0934 N/A
1:15 am 01:15 Cloudy 44 6.5 32 0 64 64 ESE 8 13 30 1016 10 16.0934 N/A
1:35 am 01:35 Mostly Cloudy 43 6.2 32 -0.1 64 64 ESE 5 7 30.03 1017 10 16.0934 N/A
1:55 am 01:55 Mostly Cloudy with Nearby Thunderstorms 43 6.1 32 0 65 65 ESE 6 9 30 1016 10 16.0934 N/A
2:15 am 02:15 Mostly Cloudy with Thunderstorms 43 6 32 0 66 66 E 5 7 30 1016 10 16.0934 N/A
2:35 am 02:35 Cloudy 42 5.5 32 -0.1 68 68 E 3 6 30 1016 10 16.0934 N/A
2:55 am 02:55 Partly Cloudy 41 4.8 31 -0.3 70 70 SE 5 7 30 1016 10 16.0934 N/A
3:15 am 03:15 Clear 40 4.2 31 -0.6 71 71 SE 3 6 29.97 1015 10 16.0934 N/A
3:35 am 03:35 Partly Cloudy with Nearby Thunderstorms 40 4.7 32 -0.1 71 71 SE 6 9 29.97 1015 10 16.0934 N/A
3:55 am 03:55 Mostly Cloudy 42 5.3 32 0 69 69 ESE 7 11 29.97 1015 10 16.0934 N/A
4:15 am 04:15 Mostly Cloudy 41 5 32 0 70 70 ESE 9 15 29.94 1014 10 16.0934 N/A
4:35 am 04:35 Partly Cloudy 40 4.6 32 -0.1 72 72 ESE 10 17 29.88 1012 10 16.0934 N/A
4:55 am 04:55 Clear 40 4.3 32 -0.1 73 73 ESE 10 17 29.85 1011 10 16.0934 N/A
5:15 am 05:15 Clear 39 4 32 -0.2 74 74 SE 12 19 29.85 1011 10 16.0934 N/A
5:35 am 05:35 Clear 39 3.7 32 -0.1 76 76 SE 8 13 29.88 1012 10 16.0934 N/A
5:55 am 05:55 Mostly Cloudy 38 3.4 32 -0.1 78 78 NNW 3 6 29.91 1013 10 16.0934 N/A
6:15 am 06:15 Cloudy 38 3.6 32 0 78 78 NW 6 9 29.91 1013 10 16.0934 N/A
6:35 am 06:35 Cloudy 39 4 32 0.1 76 76 NNW 5 7 29.94 1014 10 16.0934 N/A
6:55 am 06:55 Cloudy 40 4.2 33 0.3 76 76 N 3 6 29.94 1014 10 16.0934 N/A
7:15 am 07:15 Cloudy 40 4.5 33 0.5 76 76 N 3 6 29.97 1015 10 16.0934 N/A
7:35 am 07:35 Cloudy 40 4.7 33 0.6 75 75 N 3 6 29.97 1015 7 11.26538 N/A
7:55 am 07:55 Cloudy 40 4.7 33 0.6 75 75 NE 3 6 29.97 1015 7 11.26538 N/A
8:15 am 08:15 Cloudy 41 4.8 33 0.7 75 75 ENE 7 11 29.97 1015 10 16.0934 N/A
8:35 am 08:35 Cloudy 41 5 34 1.1 76 76 ENE 3 6 29.97 1015 10 16.0934 N/A
8:55 am 08:55 Cloudy 41 4.8 34 1.1 77 77 Calm 29.97 1015 10 16.0934 N/A
9:15 am 09:15 Cloudy 41 5 34 1.2 77 77 Calm 29.97 1015 7 11.26538 N/A
9:35 am 09:35 Cloudy 42 5.3 35 1.5 77 77 Calm 29.97 1015 10 16.0934 N/A
9:55 am 09:55 Cloudy 42 5.8 35 1.4 74 74 Calm 29.94 1014 10 16.0934 N/A
10:15 am 10:15 Cloudy 43 6.1 36 2 75 75 S 5 7 29.94 1014 10 16.0934 N/A
10:35 am 10:35 Cloudy 44 6.7 37 2.6 75 75 S 6 9 29.94 1014 7 11.26538 N/A
10:55 am 10:55 Cloudy 46 7.7 38 3.6 76 76 S 6 9 29.94 1014 7 11.26538 N/A
11:15 am 11:15 Mostly Cloudy 48 8.8 39 3.8 71 71 W 5 7 29.88 1012 10 16.0934 N/A
11:35 am 11:35 Sunny 49 9.6 38 3.3 65 65 WSW 7 11 29.88 1012 10 16.0934 N/A
11:55 am 11:55 Sunny 50 10.1 38 3.1 62 62 W 3 6 29.88 1012 10 16.0934 N/A
12:15 pm 12:15 Sunny 53 11.4 38 3.1 57 57 W 8 13 29.85 1011 10 16.0934 N/A
12:35 pm 12:35 Sunny 54 12 37 2.7 53 53 Calm 29.83 1010 10 16.0934 N/A
12:55 pm 12:55 Sunny 57 13.7 36 2.3 46 46 W 8 13 29.8 1009 10 16.0934 N/A
1:15 pm 13:15 Sunny 59 14.9 36 2.2 43 43 W 12 19 29.77 1008 10 16.0934 N/A
1:35 pm 13:35 Sunny 60 15.4 35 1.7 40 40 NNW 10 17 29.77 1008 10 16.0934 N/A
1:55 pm 13:55 Sunny 61 16.1 34 1.1 36 36 WNW 15 24 29.77 1008 10 16.0934 N/A
2:15 pm 14:15 Sunny 62 16.7 33 0.7 34 34 WNW 18 30 29.74 1007 10 16.0934 N/A
2:35 pm 14:35 Sunny 63 17 32 0 32 32 WNW 13 20 29.74 1007 10 16.0934 N/A
2:55 pm 14:55 Sunny 64 17.5 31 -0.5 30 30 NNW 13 20 29.71 1006 10 16.0934 N/A
3:15 pm 15:15 Sunny 65 18.1 31 -0.5 29 29 NW 17 28 29.68 1005 10 16.0934 N/A
3:35 pm 15:35 Sunny 66 18.8 30 -1.3 26 26 NW 15 24 29.68 1005 10 16.0934 N/A
3:55 pm 15:55 Sunny 66 19 29 -1.7 25 25 N 15 24 29.68 1005 10 16.0934 N/A
4:15 pm 16:15 Partly Cloudy 66 18.7 29 -1.4 26 26 N 16 26 29.68 1005 10 16.0934 N/A
4:35 pm 16:35 Partly Cloudy 65 18.4 29 -1.5 26 26 NNW 10 17 29.71 1006 10 16.0934 N/A
4:55 pm 16:55 Mostly Cloudy 65 18.6 29 -1.8 25 25 NNW 16 26 29.71 1006 10 16.0934 N/A
5:15 pm 17:15 Partly Cloudy 66 18.7 29 -1.6 25 25 NW 13 20 29.71 1006 10 16.0934 N/A
5:35 pm 17:35 Partly Cloudy 64 17.7 28 -2.4 25 25 NW 14 22 29.68 1005 10 16.0934 N/A
5:55 pm 17:55 Sunny 65 18.1 28 -2.2 25 25 NW 12 19 29.68 1005 10 16.0934 N/A
6:15 pm 18:15 Sunny 66 18.9 26 -3.1 22 22 WNW 17 28 29.71 1006 10 16.0934 N/A
6:35 pm 18:35 Sunny 66 18.7 25 -3.8 22 22 WNW 16 26 29.71 1006 10 16.0934 N/A
6:55 pm 18:55 Sunny 65 18.2 25 -3.7 22 22 WNW 14 22 29.71 1006 10 16.0934 N/A
7:15 pm 19:15 Sunny 64 18 24 -4.4 22 22 WNW 17 28 29.71 1006 10 16.0934 N/A
7:35 pm 19:35 Sunny 62 16.6 26 -3.5 25 25 NW 10 17 29.74 1007 10 16.0934 N/A
7:55 pm 19:55 Sunny 57 14 26 -3.1 31 31 WNW 8 13 29.8 1009 10 16.0934 N/A
8:15 pm 20:15 Hazy 55 12.6 26 -3.6 32 32 WNW 7 11 29.8 1009 5 8.0467 N/A
8:35 pm 20:35 Clear 52 11 26 -3.6 36 36 WNW 5 7 29.83 1010 10 16.0934 N/A
8:55 pm 20:55 Clear 51 10.8 26 -3.5 37 37 Calm 29.83 1010 10 16.0934 N/A
9:15 pm 21:15 Clear 51 10.3 26 -3.1 39 39 Calm 29.83 1010 10 16.0934 N/A
9:35 pm 21:35 Clear 46 8 31 -0.3 56 56 ESE 8 13 29.85 1011 10 16.0934 N/A
9:55 pm 21:55 Clear 48 8.7 39 3.9 72 72 SE 8 13 29.83 1010 10 16.0934 N/A
10:15 pm 22:15 Clear 46 7.5 38 3.4 75 75 SE 6 9 29.88 1012 10 16.0934 N/A
10:35 pm 22:35 Partly Cloudy 47 8.1 39 4.1 76 76 SE 6 9 29.88 1012 10 16.0934 N/A
10:55 pm 22:55 Mostly Cloudy 46 8 40 4.3 78 78 SSE 5 7 29.88 1012 7 11.26538 N/A
11:15 pm 23:15 Cloudy 46 7.5 39 3.7 77 77 Calm 29.88 1012 7 11.26538 N/A
11:35 pm 23:35 Cloudy 45 7.3 38 3.2 75 75 Calm 29.91 1013 7 11.26538 N/A
11:50 pm 23:50 Cloudy 45 7 36 2.2 72 72 Calm 29.91 1013 7 11.26538 N/A

Powered by AerisWeather